This is the latest recevied weather packets stored in our database for station/object W7TTE. If no packets are shown the sender has not sent any weather packets the latest 10 day(s).
| Time | Temp. | Humidity | Pressure | Rain* | Wind** | Luminosity | Snow |
|---|---|---|---|---|---|---|---|
| 1777545023 | 18.33° C | 28% | 1012.3 hPa | 0 mm | - | 0 W/m² | - |
| 1777544719 | 18.33° C | 27% | 1012.4 hPa | 0 mm | - | 0 W/m² | - |
| 1777544414 | 18.89° C | 27% | 1012.2 hPa | 0 mm | - | 0 W/m² | - |
| 1777544111 | 18.89° C | 27% | 1012.2 hPa | 0 mm | - | 0 W/m² | - |
| 1777543809 | 19.44° C | 26% | 1012.6 hPa | 0 mm | - | 0 W/m² | - |
| 1777543504 | 20° C | 25% | 1012.5 hPa | 0 mm | - | 0 W/m² | - |
| 1777543201 | 19.44° C | 25% | 1012.4 hPa | 0 mm | - | 0 W/m² | - |
| 1777542289 | 20° C | 23% | 1012.5 hPa | 0 mm | - | 0 W/m² | - |
| 1777541987 | 20° C | 23% | 1012.5 hPa | 0 mm | - | 0 W/m² | - |
| 1777541684 | 20.56° C | 24% | 1012.7 hPa | 0 mm | - | 0 W/m² | - |
| 1777541380 | 20.56° C | 24% | 1012.6 hPa | 0 mm | - | 0 W/m² | - |
| 1777541076 | 20° C | 24% | 1012.6 hPa | 0 mm | - | 0 W/m² | - |
| 1777540774 | 20° C | 25% | 1012.5 hPa | 0 mm | - | 0 W/m² | - |
| 1777540472 | 20° C | 24% | 1012.7 hPa | 0 mm | - | 0 W/m² | - |
| 1777540167 | 20° C | 24% | 1013 hPa | 0 mm | - | 0 W/m² | - |
| 1777539862 | 20° C | 24% | 1013.1 hPa | 0 mm | - | 0 W/m² | - |
| 1777539560 | 20.56° C | 23% | 1013.4 hPa | 0 mm | - | 0 W/m² | - |
| 1777539256 | 20° C | 24% | 1013.4 hPa | 0 mm | - | 0 W/m² | - |
| 1777538343 | 20° C | 24% | 1013.4 hPa | 0 mm | - | 0 W/m² | - |
| 1777537735 | 20.56° C | 23% | 1013.3 hPa | 0 mm | - | 0 W/m² | - |
| 1777537128 | 21.11° C | 22% | 1013.1 hPa | 0 mm | - | 0 W/m² | - |
| 1777536522 | 21.67° C | 21% | 1013.5 hPa | 0 mm | - | 0 W/m² | - |
| 1777534701 | 22.22° C | 22% | 1013.7 hPa | 0 mm | - | 0 W/m² | - |
| 1777534398 | 22.22° C | 22% | 1013.7 hPa | 0 mm | - | 0 W/m² | - |
| 1777534096 | 22.22° C | 22% | 1013.5 hPa | 0 mm | - | 0 W/m² | - |
* Rain latest hour (hover to see other rain measurements)
** Current wind speed in m/s (hover to see current wind gust speed)